User: anonymous   Login
Location: Bridgewater
(44.3670°N, 64.5170°W)
Time: 02:16:53
(UTC-03:00)
Language:

OPAL - Orbit

View from above orbital plane
View from above orbital plane
View from above satellite
View from above satellite

Ground track
Ground track

The orbit data is extracted from the following two-line orbital elements,

1 26063U 00004C   15085.19135764  .00000164  00000-0  75253-4 0  9993
2 26063 100.2269 288.4980 0037242 083.7935 276.7485 14.36512953794515
Epoch (UTC): 26 March 2015 04:35:33
Eccentricity: 0.0037242
inclination: 100.2269°
perigee height: 743 km
apogee height: 796 km
right ascension of ascending node: 288.4980°
argument of perigee: 83.7935°
revolutions per day: 14.36512953
mean anomaly at epoch: 276.7485°
orbit number at epoch: 79451

The dashed part of the orbit path shows where the satellite is in the earth's shadow,  

DLR